Dewpoint
25 20 18 17 20 25 29 33 32 34 36 32 22 17 16 12 13 16 19 19 18 18 18 17 17 18 50 59 62 62 62 62 60 59 64 63 60 62 61 62 63 63 63 62
27 23 23 19 16 24 25 30 35 35 32 31 31 26 14 13 12 13 16 17 16 16 16 16 16 16 22 54 61 62 62 63 62 60 61 64 63 62 63 63 64 64 63 63
25 23 25 22 16 14 23 26 34 33 31 29 28 25 25 23 8 14 15 15 16 16 16 16 15 16 17 40 58 62 62 63 64 62 61 62 66 63 64 63 64 66 65 64
28 27 28 26 20 14 13 21 28 31 29 26 27 23 24 24 29 18 12 14 15 15 16 15 14 20 24 34 54 61 62 63 64 64 63 60 64 64 62 63 64 64 67 66
22 23 29 29 26 20 12 16 20 26 28 30 29 31 31 33 32 32 31 22 15 16 15 14 15 19 25 39 54 61 62 63 65 65 65 61 61 63 64 63 63 64 66 67
27 28 32 33 33 30 25 15 21 24 24 26 28 29 30 31 30 30 30 28 19 15 15 15 22 34 44 55 57 60 61 63 65 65 66 64 62 62 62 63 64 64 65 66
19 28 33 33 32 29 27 14 15 19 22 23 27 27 27 30 33 31 29 29 32 32 25 28 38 41 44 47 56 59 61 62 64 66 66 66 64 64 63 63 63 64 64 64
17 13 26 33 31 29 26 22 20 16 20 22 27 25 27 34 29 31 33 35 34 35 37 39 41 43 45 46 48 52 58 57 62 64 65 65 65 65 64 63 63 63 64 64
14 11 18 26 33 29 29 24 29 22 26 24 25 26 30 34 32 31 32 29 32 33 34 35 36 38 44 47 49 51 52 53 53 53 61 63 64 64 65 65 64 64 64 65
14 16 19 28 30 27 33 32 28 28 20 19 24 29 29 33 32 34 34 29 27 26 32 34 33 32 34 38 45 46 47 48 50 51 55 58 57 57 60 66 65 65 65 66
19 19 22 24 24 24 22 27 27 29 26 23 22 27 33 33 35 34 34 31 29 26 26 30 29 29 28 28 36 42 42 43 44 47 50 53 57 60 61 61 62 64 65 64
22 22 21 23 25 22 25 27 28 21 19 22 24 25 32 31 33 30 31 34 30 28 26 25 25 24 25 27 27 36 37 39 41 43 47 47 50 56 57 57 59 61 62 64
24 21 15 13 16 16 15 17 26 27 26 19 14 21 31 27 28 29 28 31 31 28 26 25 24 23 22 26 28 30 33 33 39 36 39 43 46 50 54 55 55 55 58 60
25 22 18 15 16 17 16 16 15 22 15 12 16 16 17 25 25 29 27 30 32 31 26 26 23 22 22 22 23 28 30 32 37 34 34 38 39 46 51 52 52 51 52 56
19 17 19 17 17 18 16 13 12 13 16 16 12 9 12 14 14 26 30 29 28 30 29 26 25 25 25 24 23 27 28 30 31 30 31 35 37 39 46 49 50 49 49 50
20 14 17 15 16 16 14 14 13 11 9 8 11 19 21 24 24 24 23 24 24 24 24 24 26 25 25 25 26 27 27 28 29 29 30 32 32 35 38 44 50 48 47 47
17 15 13 10 15 15 6 13 13 18 22 19 19 19 21 22 24 23 23 24 23 23 23 23 25 26 26 25 26 25 26 27 27 27 28 29 30 31 35 42 49 48 46 47
17 16 15 10 13 -2 7 16 19 20 18 17 16 19 21 21 21 25 26 25 25 25 25 26 26 27 27 27 27 27 27 27 26 26 27 27 28 29 29 34 39 45 47 46
21 14 10 12 14 13 16 24 21 20 16 15 15 20 22 23 23 23 27 27 27 27 27 28 29 29 29 28 28 28 28 28 28 28 28 28 29 28 29 30 33 39 43 44
19 18 14 16 11 4 17 20 20 21 18 18 17 20 21 24 18 21 27 29 28 29 29 30 31 31 31 31 31 30 30 30 29 29 29 30 29 30 30 31 33 39 44 43
13 16 13 12 14 16 19 19 21 15 17 18 19 19 23 24 25 26 28 29 29 30 30 31 32 31 32 32 32 32 32 32 32 32 32 32 32 32 31 32 36 40 42 43
13 13 15 16 14 11 21 17 15 18 21 21 19 18 23 26 27 28 29 29 29 30 31 32 31 32 32 33 33 33 33 36 36 37 36 35 33 34 33 33 37 41 42 42
10 14 14 16 15 19 20 20 21 22 21 22 22 23 25 26 28 29 30 30 31 29 28 29 29 29 30 32 32 31 31 33 34 38 39 38 37 35 35 36 37 40 41 40
16 20 16 17 16 18 19 20 23 25 27 29 30 29 29 29 30 29 29 29 28 28 29 30 32 33 33 34 34 34 34 36 39 37 38 39 38 37 36 38 40 40 39 39
21 20 17 17 18 19 22 23 26 29 31 29 29 29 30 30 30 30 31 32 33 33 33 33 33 33 33 33 33 33 34 35 36 36 37 36 36 36 36 37 38 38 39 39
20 18 19 17 18 21 24 27 31 31 29 30 30 29 30 30 30 31 30 31 32 31 32 31 31 31 30 31 32 31 31 31 31 32 33 35 35 36 37 38 38 39 40 40
Wind_Speed
8 14 18 18 23 20 24 21 26 14 17 17 19 32 33 24 19 21 22 26 22 19 21 22 19 18 26 31 31 32 30 31 28 26 25 23 27 21 19 20 21 22 23 23
5 17 20 17 20 23 23 23 20 17 16 17 21 28 27 27 20 26 26 23 26 23 13 19 22 21 19 31 34 33 36 32 31 28 29 22 26 22 20 19 20 23 24 23
13 16 12 18 20 23 26 22 17 17 19 24 16 26 27 26 23 24 27 29 24 27 32 20 22 24 24 25 34 34 36 35 34 33 23 18 12 12 17 22 23 23 25 24
6 11 22 19 18 19 22 21 20 19 13 12 9 13 21 11 10 15 28 28 26 26 30 25 23 17 9 19 30 36 36 37 35 33 31 33 29 28 27 24 20 18 23 25
11 22 8 12 8 13 20 22 22 17 21 16 19 3 11 12 15 18 18 18 26 31 28 26 23 24 14 11 23 33 35 37 36 36 33 36 32 27 23 23 25 24 21 25
9 11 4 6 21 20 17 17 18 16 7 10 20 7 9 8 15 16 19 21 24 31 26 24 14 6 4 9 19 30 34 31 30 32 30 32 34 27 22 22 20 22 19 19
15 3 8 15 17 7 5 15 8 11 11 9 8 13 15 11 13 16 15 15 16 7 3 7 13 14 14 8 16 13 12 12 11 19 21 28 28 25 23 23 22 23 23 22
15 13 9 7 6 10 16 6 9 8 9 9 13 8 4 28 18 15 17 22 25 23 23 24 22 17 19 21 19 16 18 12 10 13 18 16 15 17 19 21 21 22 23 24
11 7 15 14 18 4 5 3 6 6 4 2 5 5 4 35 38 30 30 30 24 21 21 22 23 21 20 21 24 22 24 20 16 7 11 11 9 10 13 15 18 18 22 20
7 8 12 15 7 21 13 9 4 5 5 5 5 6 10 25 29 25 27 23 22 22 18 19 21 22 19 19 17 24 20 21 18 20 18 16 7 5 14 17 21 22 20 19
8 3 11 8 14 17 15 13 6 2 4 0 5 9 11 16 21 23 24 21 21 21 16 19 18 17 16 17 18 19 20 20 20 18 18 18 17 15 15 11 7 9 11 18
11 3 5 6 8 13 8 8 9 8 9 4 5 6 12 13 17 19 21 22 23 21 20 14 14 16 17 14 16 16 17 17 15 14 16 16 15 14 15 15 16 16 14 9
11 8 7 7 7 5 6 17 5 2 4 3 6 8 5 7 12 14 20 16 24 22 20 18 11 12 12 11 12 12 14 15 14 17 17 16 16 16 15 14 14 13 14 15
4 3 5 3 8 13 14 22 15 1 2 4 6 11 12 2 5 3 15 8 21 26 25 19 25 18 14 9 11 11 12 12 12 14 12 12 14 12 9 10 12 14 12 14
4 5 1 11 15 14 14 18 18 10 10 5 10 16 23 17 6 10 9 8 6 9 19 21 20 20 22 24 20 14 12 13 12 16 20 18 15 13 13 12 10 9 11 12
5 2 6 6 8 13 20 15 10 11 13 10 9 13 18 18 21 19 15 10 9 10 8 8 12 21 20 20 21 20 18 17 16 16 15 15 17 18 16 14 13 13 13 14
3 1 6 3 7 11 2 11 14 11 25 14 13 4 10 15 16 16 16 14 17 16 14 15 16 16 16 15 16 19 16 15 16 13 13 13 15 17 17 14 10 12 12 12
5 6 1 5 8 3 3 12 10 13 12 10 7 9 11 12 12 9 15 15 16 16 17 17 17 18 17 16 17 15 13 13 14 15 14 14 14 15 17 17 16 12 9 9
12 2 1 2 2 8 4 5 5 8 2 13 16 10 6 8 8 3 11 12 14 16 18 17 15 15 18 18 18 19 21 19 16 11 13 14 15 17 17 19 19 13 8 7
4 3 3 2 1 4 0 11 15 5 8 13 14 10 10 7 15 18 8 8 13 12 12 17 18 17 18 20 19 20 20 21 20 18 19 18 19 20 20 18 16 11 10 9
3 3 9 5 5 8 4 12 7 2 6 22 13 14 7 6 9 14 18 16 10 8 12 14 15 19 19 18 17 19 18 18 19 22 22 20 20 23 23 21 12 11 12 10
2 3 6 3 4 8 8 9 7 7 12 17 21 19 14 15 18 17 16 15 16 17 14 12 14 14 15 15 18 22 23 18 19 19 20 23 21 21 22 22 18 13 13 13
5 5 2 6 7 8 11 7 13 15 18 19 16 18 17 12 9 12 12 13 13 12 15 15 18 21 18 15 16 23 24 22 26 23 21 20 20 19 22 22 20 15 16 15
4 2 4 8 3 8 17 19 16 11 15 13 16 12 11 12 11 12 12 13 11 12 15 15 18 19 21 19 20 22 20 19 17 22 21 18 19 22 19 16 14 15 17 17
8 6 8 10 17 15 7 11 12 18 15 7 10 12 13 14 14 12 12 11 10 11 15 18 19 20 21 21 22 22 23 23 23 21 19 20 20 20 21 14 14 15 14 11
11 13 9 11 12 9 14 14 14 6 7 8 10 14 13 10 11 11 14 13 12 17 17 19 20 21 22 23 23 21 21 23 24 24 21 16 16 16 17 19 17 17 19 15
Wind_Direction
279 255 247 255 236 250 260 264 247 260 242 259 236 248 256 260 235 235 238 243 245 235 241 247 243 216 202 193 189 189 185 192 185 184 186 190 199 195 199 198 197 198 201 204
287 263 266 264 263 248 252 262 285 282 273 249 253 257 256 248 240 228 230 236 253 260 226 238 255 249 204 195 194 191 191 185 187 189 195 197 195 195 195 199 202 202 201 202
293 267 282 265 250 242 251 253 269 276 305 299 296 271 266 259 235 230 227 233 234 241 260 257 255 248 242 200 194 195 192 188 186 189 192 195 182 190 183 200 205 201 202 204
303 321 323 274 255 233 247 243 248 278 296 272 334 286 265 247 275 247 237 234 231 230 241 245 244 230 200 207 200 196 193 190 191 186 184 190 191 194 206 204 201 193 194 202
308 297 303 333 267 257 241 240 253 267 277 322 283 289 266 285 277 270 270 260 230 232 231 234 227 221 217 187 200 193 200 194 192 186 187 188 197 205 208 202 200 194 194 199
27 33 25 310 301 282 273 233 240 254 289 264 246 196 271 270 241 261 259 273 261 231 228 230 198 135 112 147 188 196 195 205 190 188 190 189 194 201 205 202 201 207 199 200
347 18 52 27 331 307 4 203 217 218 219 225 185 185 248 275 266 245 260 4 7 6 188 111 102 92 76 62 141 145 176 168 182 187 193 191 190 194 197 200 204 202 208 208
356 335 1 27 4 287 301 171 178 199 193 243 183 192 54 5 296 240 58 53 41 47 68 74 70 66 63 58 58 111 135 136 156 174 188 189 199 200 201 197 201 212 212 214
343 304 322 334 338 326 319 175 294 248 157 271 192 234 18 11 27 46 50 44 40 33 55 65 67 57 55 60 67 70 80 79 81 107 210 222 233 255 242 233 231 219 215 217
330 304 347 28 12 42 69 352 131 155 196 202 194 72 39 13 15 23 42 15 19 32 29 55 58 63 58 55 54 72 73 79 73 70 68 65 45 337 250 232 231 231 225 210
353 358 326 357 20 28 28 32 5 329 29 165 163 107 5 2 8 10 358 1 1 11 24 51 44 50 60 66 65 68 66 64 66 65 63 61 52 47 41 46 8 281 245 228
344 338 340 339 294 53 44 50 33 34 345 1 309 119 12 7 7 3 346 357 351 356 3 37 54 48 41 39 53 61 64 64 65 71 65 57 51 48 44 29 13 9 1 325
338 356 356 348 347 351 351 351 342 184 145 30 0 322 230 344 19 11 341 3 354 347 348 4 22 37 26 50 56 56 48 43 45 39 35 39 40 35 26 20 16 9 356 344
32 27 51 43 285 290 310 330 348 284 335 318 283 296 317 355 351 340 346 311 36 13 357 11 12 360 10 27 52 61 62 48 47 38 33 33 24 13 14 13 6 4 359 344
20 208 291 313 305 301 316 308 315 317 280 286 304 336 350 344 352 185 111 40 80 41 13 1 10 13 23 19 10 27 52 53 51 38 25 12 358 349 346 345 353 359 1 355
353 240 300 282 279 315 310 315 320 310 301 273 59 42 8 40 63 65 80 88 96 61 19 360 8 4 11 12 6 5 8 13 23 23 17 6 358 347 342 334 326 336 344 351
270 342 330 285 301 311 79 8 340 43 41 60 57 350 25 38 45 45 36 23 21 13 359 345 349 357 355 350 347 342 341 341 346 347 347 346 344 347 339 335 315 311 323 334
250 296 233 294 349 70 260 331 47 75 65 38 24 8 30 18 360 26 19 6 359 352 346 338 345 344 338 335 332 320 307 313 314 312 317 316 319 319 320 317 304 282 290 309
209 188 265 329 310 289 312 25 358 346 78 29 0 359 12 353 353 284 349 352 340 334 333 333 330 326 324 324 324 327 322 317 300 289 287 285 282 289 296 297 296 282 268 280
186 208 203 123 326 275 6 360 344 328 219 351 348 327 340 360 339 312 294 288 308 312 323 326 325 329 331 328 330 325 317 311 305 303 290 278 273 276 276 274 273 255 245 254
174 171 222 222 238 274 322 339 333 0 295 317 320 300 275 268 255 267 289 294 289 281 307 308 311 312 312 311 312 308 304 304 306 302 295 286 281 273 265 267 248 246 238 237
223 225 216 151 218 269 13 355 0 278 282 290 296 293 283 280 289 291 295 294 305 306 315 321 321 315 321 339 342 326 318 324 322 314 306 299 291 275 268 256 250 230 221 235
268 199 251 208 230 281 308 285 290 289 295 299 297 296 295 301 308 296 290 302 317 331 320 319 314 308 305 307 308 300 300 305 306 306 308 308 307 288 274 258 246 227 218 225
275 352 255 331 283 310 297 295 296 310 314 314 330 318 325 336 345 343 340 328 320 312 316 330 332 322 315 312 303 294 293 293 299 301 298 303 310 314 304 267 241 225 214 228
219 314 261 264 287 287 286 304 292 311 313 3 10 6 8 1 349 343 337 334 330 323 321 315 308 304 302 305 302 303 301 300 294 293 297 296 295 296 298 287 258 238 238 243
221 232 211 236 252 281 287 278 296 317 28 18 6 347 342 333 325 319 316 312 324 324 316 315 309 306 308 307 302 303 305 301 296 292 290 284 291 291 281 270 267 244 247 250